TimeEDT,TemperatureF,Dew PointF,Humidity,Sea Level PressureIn,VisibilityMPH,Wind Direction,Wind SpeedMPH,Gust SpeedMPH,PrecipitationIn,Events,Conditions,WindDirDegrees,DateUTC
12:51 AM,48.0,30.0,50,30.20,10.0,ENE,9.2,-,N/A,,Clear,70,2013-04-15 04:51:00
1:51 AM,46.9,30.0,52,30.19,10.0,ENE,8.1,-,N/A,,Clear,70,2013-04-15 05:51:00
2:51 AM,46.9,28.9,50,30.23,10.0,East,5.8,-,N/A,,Clear,100,2013-04-15 06:51:00
3:51 AM,46.9,30.0,52,30.24,10.0,East,4.6,-,N/A,,Scattered Clouds,100,2013-04-15 07:51:00
4:51 AM,46.9,30.0,52,30.26,10.0,ESE,8.1,-,N/A,,Overcast,110,2013-04-15 08:51:00
5:51 AM,46.0,30.0,54,30.27,10.0,ESE,5.8,-,N/A,,Mostly Cloudy,120,2013-04-15 09:51:00
6:51 AM,45.0,30.9,58,30.30,10.0,East,5.8,-,N/A,,Partly Cloudy,100,2013-04-15 10:51:00
7:51 AM,46.9,30.9,54,30.32,10.0,ESE,6.9,-,N/A,,Overcast,110,2013-04-15 11:51:00
8:51 AM,46.9,30.0,52,30.34,10.0,ESE,9.2,-,N/A,,Overcast,110,2013-04-15 12:51:00
9:51 AM,50.0,28.9,44,30.32,10.0,SE,6.9,-,N/A,,Clear,130,2013-04-15 13:51:00
10:51 AM,54.0,33.1,45,30.31,10.0,East,10.4,-,N/A,,Clear,100,2013-04-15 14:51:00
11:51 AM,54.0,34.0,47,30.30,10.0,SSE,5.8,-,N/A,,Mostly Cloudy,150,2013-04-15 15:51:00
12:51 PM,54.0,34.0,47,30.29,10.0,SSE,6.9,-,0.00,,Overcast,150,2013-04-15 16:51:00
1:51 PM,57.9,37.9,47,30.29,10.0,South,6.9,-,0.00,,Mostly Cloudy,180,2013-04-15 17:51:00
2:51 PM,59.0,39.0,48,30.28,10.0,South,8.1,-,N/A,,Overcast,170,2013-04-15 18:51:00
3:51 PM,60.1,39.9,47,30.26,10.0,SSE,10.4,-,N/A,,Overcast,150,2013-04-15 19:51:00
4:51 PM,60.1,39.9,47,30.26,10.0,South,8.1,-,N/A,,Overcast,170,2013-04-15 20:51:00
5:51 PM,60.1,41.0,49,30.27,10.0,South,10.4,-,N/A,,Clear,170,2013-04-15 21:51:00
6:51 PM,57.9,41.0,53,30.28,10.0,SSE,10.4,17.3,N/A,,Clear,160,2013-04-15 22:51:00
7:51 PM,57.0,39.9,53,30.30,10.0,SSE,9.2,-,N/A,,Overcast,150,2013-04-15 23:51:00
8:51 PM,54.0,37.9,55,30.32,10.0,SE,8.1,-,N/A,,Overcast,140,2013-04-16 00:51:00
9:51 PM,52.0,37.9,59,30.33,10.0,SSE,8.1,-,N/A,,Overcast,150,2013-04-16 01:51:00
10:51 PM,52.0,37.9,59,30.34,10.0,SE,5.8,-,N/A,,Overcast,140,2013-04-16 02:51:00
11:51 PM,51.1,37.9,61,30.35,10.0,SE,5.8,-,N/A,,Overcast,140,2013-04-16 03:51:00